{"data":{"norad_id":68922,"intl_designator":"2026-098D","name":"KUIPER-00388","alt_names":[],"object_type":"PAYLOAD","status":"ACTIVE","operator":null,"country":"US","launch_date":"2026-04-30","launch_site_code":"FRGUI","launch_vehicle":null,"mission":null,"orbit_class":"UNKNOWN","rcs_meters":null,"size_class":null,"mass_kg":null,"dimensions":null,"purposes":[],"wikipedia_slug":null,"has_3d_model":false,"image_url":null,"decayed_at":null,"tle_current":{"epoch":"2026-09-19T18:35:05.065152Z","epoch_age_seconds":78202,"freshness":"FRESH","line1":"1 68922U 26098D   26262.77436418  .00002090  00000+0  30310-3 0  9990","line2":"2 68922  51.9016   5.0533 0000374  98.8431 261.2574 14.79935381 21419","mean_motion":14.79935381,"eccentricity":3.74e-5,"inclination_deg":51.9016,"raan_deg":5.0533,"arg_perigee_deg":98.8431,"mean_anomaly_deg":261.2574,"bstar":0.0003031,"rev_number":2141,"period_min":97.301545627417,"perigee_km":629.26602628286,"apogee_km":629.79019963331,"semimajor_km":7007.6651129581,"source":"CELESTRAK","updated_at":"2026-09-20T09:00:24.553112Z"}}}